Hourly Data Report for October 27, 2015

All times are specified in Local Standard Time (LST). Add 1 hour to adjust for Daylight Saving Time where and when it is observed.

PENTICTON A
BRITISH COLUMBIA

49°27'45.000" N
119°36'08.000" W
344.40 m
1126146
71889
YYF

Download Data

Hourly Data (October 2015)
Hourly Data Report for October 27, 2015
Temp Definition
°C
Dew Point Temp Definition
°C
Rel Hum Definition
%
Wind Dir Definition
10's deg

Wind Spd Definition
km/h
Visibility Definition
km
Stn Press Definition
kPa
Hmdx Definition


Wind Chill Definition


Weather Definition


TIME
00:00 Legend Double Dagger 7.3 0.5 62 33 17 24.1 97.99     LegendNANA
01:00 Legend Double Dagger 6.8 0.5 64 33 8 24.1 98.03     Mostly Cloudy
02:00 Legend Double Dagger 6.0 1.2 71 1 7 24.1 98.02     LegendNANA
03:00 Legend Double Dagger 3.5 0.9 83 35 9 24.1 98.04     LegendNANA
04:00 Legend Double Dagger 5.0 1.7 79 34 7 24.1 98.06     Cloudy
05:00 Legend Double Dagger 5.5 2.0 78 36 7 24.1 98.11     LegendNANA
06:00 Legend Double Dagger 5.7 1.8 76 35 10 24.1 98.13     LegendNANA
07:00 Legend Double Dagger 5.7 2.2 78 2 10 24.1 98.14     Mostly Cloudy
08:00 Legend Double Dagger 6.8 2.9 76 34 7 24.1 98.20     LegendNANA
09:00 Legend Double Dagger 9.0 2.8 65 34 5 24.1 98.22     LegendNANA
10:00 Legend Double Dagger 11.5 2.3 53 36 15 24.1 98.22     Mostly Cloudy
11:00 Legend Double Dagger 10.7 1.3 52 34 13 24.1 98.17     LegendNANA
12:00 Legend Double Dagger 11.0 1.6 52 36 14 24.1 98.12     LegendNANA
13:00 Legend Double Dagger 10.9 2.0 54 2 13 24.1 98.05     Mostly Cloudy
14:00 Legend Double Dagger 10.8 1.9 54 2 12 24.1 98.03     LegendNANA
15:00 Legend Double Dagger 10.8 1.7 53 35 15 24.1 97.99     LegendNANA
16:00 Legend Double Dagger 9.2 2.1 61 35 9 24.1 97.97     Mostly Cloudy
17:00 Legend Double Dagger 5.5 1.4 75 34 6 24.1 97.95     LegendNANA
18:00 Legend Double Dagger 4.6 0.7 76 2 8 24.1 97.95     LegendNANA
19:00 Legend Double Dagger 3.9 0.6 79 36 4 24.1 97.95     Mostly Cloudy
20:00 Legend Double Dagger 3.2 0.3 81 2 10 24.1 97.92     LegendNANA
21:00 Legend Double Dagger 2.8 0.2 83 1 10 24.1 97.93     LegendNANA
22:00 Legend Double Dagger 2.5 -0.1 83 2 9 24.1 97.94     Mostly Cloudy
23:00 Legend Double Dagger 2.3 -0.1 84 2 9 24.1 97.92     LegendNANA

Notes on Data Quality.

Legend

  • E = Estimated
  • M = Missing
  • NA = Not Available
  • ‡ = Partner data that is not subject to review by the National Climate Archives
Date modified: